| time (UTC) | temp F | wind direction | speed MPH | gust MPH | rain 1hr in | rain 24hr in | rain mn in | humidity % | barometer mb |
| 20260502204745 | 74 | 53 | 4.0 | 9.0 | 0.00 | 0.06 | 0.00 | 45 | 1021.7 |
| 20260502204245 | 73 | 57 | 3.0 | 10.0 | 0.00 | 0.06 | 0.00 | 46 | 1021.7 |
| 20260502203745 | 73 | 16 | 2.0 | 10.0 | 0.00 | 0.06 | 0.00 | 46 | 1021.7 |
| 20260502203243 | 73 | 75 | 2.0 | 9.0 | 0.00 | 0.06 | 0.00 | 47 | 1021.8 |
| 20260502202738 | 73 | 73 | 4.0 | 13.0 | 0.00 | 0.06 | 0.00 | 45 | 1021.8 |
| 20260502202232 | 73 | 56 | 3.0 | 13.0 | 0.00 | 0.06 | 0.00 | 44 | 1021.9 |
| 20260502201957 | 73 | 70 | 4.0 | 11.0 | 0.00 | 0.06 | 0.00 | 46 | 1021.9 |
| 20260502201220 | 73 | 12 | 4.0 | 11.0 | 0.00 | 0.06 | 0.00 | 45 | 1022.0 |
| 20260502200714 | 73 | 5 | 4.0 | 11.0 | 0.00 | 0.06 | 0.00 | 45 | 1022.0 |
| 20260502195702 | 73 | 32 | 3.0 | 10.0 | 0.00 | 0.07 | 0.00 | 48 | 1022.0 |
| 20260502195156 | 72 | 41 | 3.0 | 10.0 | 0.00 | 0.08 | 0.00 | 49 | 1022.1 |
| 20260502194650 | 72 | 42 | 3.0 | 10.0 | 0.00 | 0.09 | 0.00 | 50 | 1022.1 |
| 20260502194144 | 72 | 38 | 3.0 | 13.0 | 0.00 | 0.09 | 0.00 | 49 | 1022.2 |
| 20260502193637 | 72 | 32 | 4.0 | 13.0 | 0.00 | 0.09 | 0.00 | 50 | 1022.1 |
| 20260502193132 | 72 | 39 | 4.0 | 11.0 | 0.00 | 0.09 | 0.00 | 49 | 1022.2 |
| 20260502192626 | 71 | 82 | 4.0 | 12.0 | 0.00 | 0.09 | 0.00 | 51 | 1022.1 |
| 20260502192119 | 72 | 61 | 4.0 | 12.0 | 0.00 | 0.09 | 0.00 | 51 | 1022.2 |
| 20260502191614 | 71 | 144 | 4.0 | 10.0 | 0.00 | 0.09 | 0.00 | 52 | 1022.2 |
| 20260502191108 | 71 | 42 | 5.0 | 13.0 | 0.00 | 0.09 | 0.00 | 53 | 1022.3 |
| 20260502190602 | 71 | 28 | 5.0 | 14.0 | 0.00 | 0.09 | 0.00 | 51 | 1022.4 |
| 20260502190326 | 71 | 83 | 5.0 | 14.0 | 0.00 | 0.09 | 0.00 | 51 | 1022.4 |
| 20260502185550 | 71 | 62 | 5.0 | 13.0 | 0.00 | 0.09 | 0.00 | 51 | 1022.4 |
| 20260502185314 | 70 | 38 | 5.0 | 14.0 | 0.00 | 0.09 | 0.00 | 51 | 1022.4 |
| 20260502184808 | 70 | 74 | 4.0 | 14.0 | 0.00 | 0.09 | 0.00 | 52 | 1022.5 |
| 20260502184032 | 70 | 49 | 5.0 | 14.0 | 0.00 | 0.09 | 0.00 | 53 | 1022.6 |
| 20260502183526 | 70 | 21 | 5.0 | 14.0 | 0.00 | 0.09 | 0.00 | 52 | 1022.7 |
| 20260502183020 | 70 | 35 | 4.0 | 13.0 | 0.00 | 0.09 | 0.00 | 53 | 1022.7 |
| 20260502182514 | 70 | 36 | 4.0 | 12.0 | 0.00 | 0.09 | 0.00 | 54 | 1022.7 |
| 20260502182008 | 69 | 38 | 5.0 | 12.0 | 0.00 | 0.09 | 0.00 | 55 | 1022.9 |
| 20260502181502 | 69 | 67 | 4.0 | 12.0 | 0.00 | 0.11 | 0.00 | 55 | 1022.8 |
| 20260502181001 | 70 | 17 | 4.0 | 13.0 | 0.00 | 0.12 | 0.00 | 57 | 1022.9 |
| 20260502180449 | 69 | 50 | 4.0 | 14.0 | 0.00 | 0.12 | 0.00 | 56 | 1022.9 |
| 20260502164314 | 67 | 79 | 5.0 | 13.0 | 0.00 | 0.26 | 0.00 | 59 | 1023.8 |
| 20260502163808 | 66 | 39 | 6.0 | 13.0 | 0.00 | 0.28 | 0.00 | 55 | 1023.8 |
| 20260502163534 | 66 | 79 | 6.0 | 14.0 | 0.00 | 0.29 | 0.00 | 55 | 1023.8 |
| 20260502163026 | 66 | 61 | 5.0 | 14.0 | 0.00 | 0.29 | 0.00 | 56 | 1023.8 |
| 20260502162250 | 67 | 53 | 4.0 | 12.0 | 0.00 | 0.29 | 0.00 | 57 | 1023.8 |
| 20260502161744 | 66 | 65 | 4.0 | 13.0 | 0.00 | 0.29 | 0.00 | 58 | 1023.8 |
| 20260502161238 | 66 | 71 | 4.0 | 15.0 | 0.00 | 0.29 | 0.00 | 57 | 1023.9 |
| 20260502160732 | 65 | 28 | 5.0 | 14.0 | 0.00 | 0.29 | 0.00 | 57 | 1023.9 |
| 20260502160226 | 65 | 57 | 6.0 | 15.0 | 0.00 | 0.29 | 0.00 | 57 | 1023.8 |
| 20260502152224 | 63 | 102 | 6.0 | 14.0 | 0.00 | 0.29 | 0.00 | 64 | 1023.5 |
| 20260502151724 | 63 | 60 | 5.0 | 13.0 | 0.00 | 0.29 | 0.00 | 63 | 1023.4 |
| 20260502151456 | 63 | 98 | 5.0 | 13.0 | 0.00 | 0.29 | 0.00 | 63 | 1023.5 |
| 20260502150723 | 62 | 37 | 4.0 | 13.0 | 0.00 | 0.29 | 0.00 | 65 | 1023.3 |
| 20260502150224 | 62 | 81 | 4.0 | 12.0 | 0.00 | 0.29 | 0.00 | 65 | 1023.2 |
| 20260502130717 | 55 | 42 | 3.0 | 13.0 | 0.00 | 0.52 | 0.00 | 77 | 1022.1 |
| 20260502130218 | 55 | 70 | 4.0 | 13.0 | 0.00 | 0.68 | 0.00 | 78 | 1022.1 |
| 20260502123716 | 53 | 53 | 1.0 | 6.0 | 0.00 | 0.72 | 0.00 | 81 | 1021.7 |
| 20260502123214 | 52 | 66 | 2.0 | 8.0 | 0.00 | 0.72 | 0.00 | 81 | 1021.7 |
| 20260502122711 | 52 | 37 | 3.0 | 9.0 | 0.00 | 0.72 | 0.00 | 81 | 1021.6 |
| 20260502122442 | 52 | 340 | 3.0 | 9.0 | 0.00 | 0.72 | 0.00 | 82 | 1021.5 |
| 20260502121712 | 51 | 40 | 2.0 | 9.0 | 0.00 | 0.72 | 0.00 | 82 | 1021.4 |
| 20260502121211 | 51 | 52 | 2.0 | 11.0 | 0.00 | 0.72 | 0.00 | 82 | 1021.3 |
| 20260502120212 | 51 | 49 | 3.0 | 11.0 | 0.00 | 0.72 | 0.00 | 83 | 1021.1 |
| 20260502115211 | 51 | 49 | 2.0 | 11.0 | 0.00 | 0.72 | 0.00 | 83 | 1020.9 |
| 20260502114705 | 51 | 63 | 2.0 | 9.0 | 0.00 | 0.72 | 0.00 | 84 | 1020.9 |
| 20260502114159 | 51 | 5 | 2.0 | 8.0 | 0.00 | 0.72 | 0.00 | 84 | 1020.9 |
| 20260502113652 | 51 | 48 | 2.0 | 8.0 | 0.00 | 0.72 | 0.00 | 84 | 1020.7 |
| 20260502113147 | 51 | 17 | 3.0 | 8.0 | 0.00 | 0.72 | 0.00 | 84 | 1020.7 |
| 20260502112641 | 51 | 0 | 2.0 | 8.0 | 0.00 | 0.72 | 0.00 | 84 | 1020.6 |
| 20260502112135 | 51 | 34 | 2.0 | 8.0 | 0.00 | 0.72 | 0.00 | 84 | 1020.7 |
| 20260502111629 | 51 | 355 | 1.0 | 8.0 | 0.00 | 0.72 | 0.00 | 84 | 1020.7 |
| 20260502111353 | 51 | 21 | 1.0 | 5.0 | 0.00 | 0.73 | 0.00 | 84 | 1020.6 |
| 20260502110617 | 51 | 355 | 1.0 | 6.0 | 0.00 | 0.73 | 0.00 | 84 | 1020.6 |
| 20260502110111 | 51 | 314 | 2.0 | 9.0 | 0.00 | 0.74 | 0.00 | 84 | 1020.6 |
| 20260502105604 | 51 | 24 | 2.0 | 9.0 | 0.00 | 0.75 | 0.00 | 84 | 1020.6 |
| 20260502105059 | 51 | 66 | 1.0 | 9.0 | 0.00 | 0.75 | 0.00 | 84 | 1020.5 |
| 20260502104553 | 51 | 300 | 2.0 | 7.0 | 0.00 | 0.76 | 0.00 | 84 | 1020.5 |
| 20260502104047 | 51 | 84 | 1.0 | 7.0 | 0.00 | 0.77 | 0.00 | 84 | 1020.6 |
| 20260502103813 | 51 | 46 | 1.0 | 10.0 | 0.00 | 0.77 | 0.00 | 84 | 1020.4 |
| 20260502103035 | 51 | 49 | 2.0 | 10.0 | 0.00 | 0.78 | 0.00 | 84 | 1020.4 |
| 20260502102529 | 51 | 293 | 2.0 | 9.0 | 0.00 | 0.79 | 0.00 | 84 | 1020.4 |
| 20260502102022 | 51 | 297 | 2.0 | 10.0 | 0.00 | 0.81 | 0.00 | 84 | 1020.4 |
| 20260502101517 | 51 | 5 | 2.0 | 10.0 | 0.00 | 0.85 | 0.00 | 85 | 1020.4 |
| 20260502101011 | 51 | 83 | 2.0 | 10.0 | 0.00 | 0.93 | 0.00 | 85 | 1020.3 |
| 20260502100504 | 51 | 30 | 2.0 | 9.0 | 0.00 | 0.97 | 0.00 | 85 | 1020.3 |
| 20260502091405 | 51 | 69 | 0.0 | 5.0 | 0.00 | 1.03 | 0.00 | 86 | 1019.3 |
| 20260502090859 | 51 | 67 | 0.0 | 3.0 | 0.00 | 1.03 | 0.00 | 86 | 1019.3 |
| 20260502090353 | 51 | 67 | 0.0 | 3.0 | 0.00 | 1.06 | 0.00 | 86 | 1019.2 |
| 20260502070811 | 52 | 53 | 2.0 | 7.0 | 0.00 | 1.50 | 0.00 | 86 | 1018.4 |
| 20260502070311 | 52 | 26 | 2.0 | 9.0 | 0.00 | 1.50 | 0.00 | 86 | 1018.5 |
| 20260502065810 | 52 | 51 | 2.0 | 9.0 | 0.00 | 1.51 | 0.00 | 86 | 1018.5 |
| 20260502065311 | 52 | 61 | 3.0 | 10.0 | 0.00 | 1.51 | 0.00 | 86 | 1018.6 |
| 20260502064811 | 52 | 51 | 4.0 | 11.0 | 0.00 | 1.51 | 0.00 | 86 | 1018.6 |
| 20260502064311 | 52 | 53 | 3.0 | 11.0 | 0.00 | 1.51 | 0.00 | 86 | 1018.6 |
| 20260502063806 | 52 | 34 | 3.0 | 10.0 | 0.00 | 1.51 | 0.00 | 86 | 1018.7 |
| 20260502063306 | 52 | 23 | 3.0 | 9.0 | 0.00 | 1.52 | 0.00 | 86 | 1018.8 |
| 20260502063037 | 52 | 67 | 2.0 | 9.0 | 0.00 | 1.52 | 0.00 | 86 | 1018.7 |
| 20260502062307 | 52 | 31 | 3.0 | 12.0 | 0.00 | 1.54 | 0.00 | 86 | 1018.6 |
| 20260502061806 | 52 | 46 | 3.0 | 12.0 | 0.00 | 1.63 | 0.00 | 86 | 1018.5 |
| 20260502061307 | 52 | 80 | 3.0 | 10.0 | 0.00 | 1.66 | 0.00 | 86 | 1018.5 |
| 20260502060807 | 52 | 63 | 3.0 | 9.0 | 0.00 | 1.66 | 0.00 | 86 | 1018.5 |
| 20260502060307 | 52 | 84 | 2.0 | 9.0 | 0.00 | 1.66 | 0.00 | 85 | 1018.6 |
| 20260502055806 | 52 | 42 | 2.0 | 10.0 | 0.00 | 1.66 | 0.00 | 85 | 1018.7 |
| 20260502055306 | 53 | 34 | 2.0 | 10.0 | 0.00 | 1.66 | 0.00 | 85 | 1018.8 |
| 20260502054809 | 53 | 37 | 3.0 | 8.0 | 0.00 | 1.66 | 0.00 | 85 | 1018.8 |
| 20260502054307 | 53 | 65 | 3.0 | 10.0 | 0.00 | 1.66 | 0.00 | 85 | 1018.8 |
| 20260502054037 | 53 | 38 | 3.0 | 11.0 | 0.00 | 1.66 | 0.00 | 85 | 1018.7 |
| 20260502053306 | 53 | 58 | 4.0 | 12.0 | 0.00 | 1.66 | 0.00 | 85 | 1018.7 |
| 20260502053029 | 53 | 48 | 4.0 | 12.0 | 0.00 | 1.67 | 0.00 | 85 | 1018.6 |
| 20260502052252 | 53 | 355 | 5.0 | 12.0 | 0.00 | 1.71 | 0.00 | 85 | 1018.6 |
| 20260502051746 | 53 | 348 | 5.0 | 12.0 | 0.00 | 1.75 | 0.00 | 85 | 1018.6 |
| 20260502050735 | 53 | 33 | 4.0 | 14.0 | 0.00 | 1.78 | 0.00 | 85 | 1017.9 |
| 20260502050228 | 53 | 34 | 5.0 | 14.0 | 0.00 | 1.78 | 0.00 | 85 | 1018.2 |
| 20260502045724 | 53 | 41 | 4.0 | 13.0 | 0.00 | 1.78 | 1.78 | 85 | 1018.4 |
| 20260502045218 | 53 | 53 | 3.0 | 10.0 | 0.00 | 1.78 | 1.78 | 85 | 1018.6 |
| 20260502044712 | 53 | 78 | 4.0 | 12.0 | 0.00 | 1.78 | 1.78 | 85 | 1018.7 |
| 20260502044208 | 53 | 70 | 5.0 | 12.0 | 0.00 | 1.78 | 1.78 | 85 | 1018.8 |
| 20260502043708 | 53 | 51 | 4.0 | 13.0 | 0.00 | 1.78 | 1.78 | 85 | 1018.7 |
| 20260502043206 | 53 | 60 | 4.0 | 13.0 | 0.00 | 1.78 | 1.78 | 85 | 1018.6 |
| 20260502042705 | 53 | 55 | 4.0 | 12.0 | 0.00 | 1.78 | 1.78 | 84 | 1018.5 |
| 20260502042434 | 53 | 36 | 4.0 | 12.0 | 0.00 | 1.78 | 1.78 | 84 | 1018.5 |
| 20260502041704 | 53 | 34 | 5.0 | 17.0 | 0.00 | 1.78 | 1.78 | 84 | 1018.6 |
| 20260502041204 | 54 | 42 | 5.0 | 17.0 | 0.00 | 1.78 | 1.78 | 84 | 1018.6 |
| 20260502040936 | 54 | 45 | 5.0 | 14.0 | 0.00 | 1.78 | 1.78 | 84 | 1018.8 |
| 20260502040204 | 54 | 86 | 6.0 | 16.0 | 0.00 | 1.78 | 1.78 | 84 | 1018.7 |
| 20260502035704 | 54 | 40 | 6.0 | 16.0 | 0.00 | 1.78 | 1.78 | 85 | 1018.6 |
| 20260502035205 | 54 | 38 | 6.0 | 15.0 | 0.00 | 1.78 | 1.78 | 85 | 1018.7 |
| 20260502034704 | 54 | 65 | 6.0 | 16.0 | 0.00 | 1.78 | 1.78 | 85 | 1018.5 |
| 20260502034204 | 54 | 59 | 6.0 | 16.0 | 0.00 | 1.78 | 1.78 | 85 | 1018.5 |
| 20260502033934 | 54 | 60 | 6.0 | 16.0 | 0.00 | 1.78 | 1.78 | 85 | 1018.5 |
| 20260502033435 | 54 | 70 | 5.0 | 14.0 | 0.00 | 1.78 | 1.78 | 85 | 1018.4 |
| 20260502032704 | 54 | 50 | 5.0 | 14.0 | 0.00 | 1.78 | 1.78 | 85 | 1018.4 |
| 20260502032204 | 54 | 55 | 5.0 | 14.0 | 0.00 | 1.78 | 1.78 | 85 | 1018.4 |
| 20260502031934 | 54 | 100 | 5.0 | 16.0 | 0.00 | 1.78 | 1.78 | 85 | 1018.3 |
| 20260502031203 | 54 | 76 | 6.0 | 16.0 | 0.00 | 1.78 | 1.78 | 85 | 1017.9 |
| 20260502030703 | 54 | 355 | 6.0 | 16.0 | 0.00 | 1.78 | 1.78 | 85 | 1017.8 |
| 20260502030201 | 54 | 25 | 6.0 | 17.0 | 0.00 | 1.78 | 1.78 | 85 | 1017.7 |
| 20260502025702 | 54 | 49 | 6.0 | 17.0 | 0.00 | 1.78 | 1.78 | 85 | 1017.6 |
| 20260502025202 | 54 | 57 | 6.0 | 16.0 | 0.00 | 1.78 | 1.78 | 85 | 1017.5 |
| 20260502024702 | 54 | 41 | 5.0 | 16.0 | 0.00 | 1.78 | 1.78 | 85 | 1017.4 |
| 20260502024201 | 53 | 5 | 5.0 | 17.0 | 0.00 | 1.78 | 1.78 | 85 | 1017.4 |
| 20260502023657 | 53 | 74 | 5.0 | 18.0 | 0.00 | 1.78 | 1.78 | 85 | 1017.3 |
| 20260502023156 | 54 | 52 | 6.0 | 18.0 | 0.00 | 1.78 | 1.78 | 85 | 1017.3 |
| 20260502022656 | 54 | 65 | 6.0 | 16.0 | 0.00 | 1.78 | 1.78 | 85 | 1017.3 |
| 20260502022155 | 54 | 41 | 7.0 | 18.0 | 0.00 | 1.78 | 1.78 | 84 | 1017.0 |
| 20260502021656 | 54 | 80 | 7.0 | 18.0 | 0.00 | 1.78 | 1.78 | 84 | 1017.1 |
| 20260502021156 | 54 | 61 | 6.0 | 16.0 | 0.00 | 1.78 | 1.78 | 85 | 1017.0 |
| 20260502020656 | 54 | 82 | 5.0 | 15.0 | 0.00 | 1.78 | 1.78 | 85 | 1016.9 |
| 20260502020156 | 54 | 13 | 6.0 | 15.0 | 0.00 | 1.78 | 1.78 | 85 | 1016.7 |
| 20260502015656 | 55 | 51 | 7.0 | 18.0 | 0.00 | 1.78 | 1.78 | 85 | 1016.6 |
| 20260502015155 | 55 | 39 | 7.0 | 19.0 | 0.00 | 1.78 | 1.78 | 86 | 1016.5 |
| 20260502014654 | 55 | 47 | 6.0 | 19.0 | 0.00 | 1.78 | 1.78 | 87 | 1016.3 |
| 20260502014149 | 55 | 46 | 6.0 | 17.0 | 0.00 | 1.78 | 1.78 | 87 | 1016.2 |
| 20260502013641 | 55 | 75 | 6.0 | 17.0 | 0.00 | 1.78 | 1.78 | 87 | 1016.2 |
| 20260502013407 | 55 | 63 | 6.0 | 16.0 | 0.00 | 1.78 | 1.78 | 87 | 1016.2 |
| 20260502012629 | 55 | 47 | 6.0 | 16.0 | 0.00 | 1.78 | 1.78 | 87 | 1016.1 |
| 20260502012353 | 56 | 49 | 8.0 | 20.0 | 0.00 | 1.78 | 1.78 | 87 | 1016.0 |
| 20260502011617 | 56 | 355 | 7.0 | 20.0 | 0.00 | 1.78 | 1.78 | 87 | 1016.1 |
| 20260502011111 | 56 | 80 | 7.0 | 18.0 | 0.00 | 1.78 | 1.78 | 87 | 1015.9 |
| 20260502010605 | 56 | 63 | 7.0 | 18.0 | 0.00 | 1.78 | 1.78 | 87 | 1015.8 |
| 20260502010058 | 56 | 51 | 6.0 | 15.0 | 0.00 | 1.78 | 1.78 | 87 | 1015.6 |
| 20260502005553 | 56 | 36 | 5.0 | 14.0 | 0.00 | 1.78 | 1.78 | 88 | 1015.4 |
| 20260502005047 | 57 | 77 | 4.0 | 13.0 | 0.00 | 1.78 | 1.78 | 88 | 1015.3 |
| 20260502004541 | 57 | 57 | 4.0 | 17.0 | 0.00 | 1.78 | 1.78 | 88 | 1015.3 |
| 20260502004035 | 57 | 67 | 6.0 | 17.0 | 0.00 | 1.78 | 1.78 | 88 | 1015.2 |
| 20260502003529 | 57 | 26 | 5.0 | 16.0 | 0.00 | 1.78 | 1.78 | 88 | 1014.9 |
| 20260502003023 | 57 | 81 | 4.0 | 16.0 | 0.00 | 1.78 | 1.78 | 88 | 1014.9 |
| 20260502002517 | 57 | 53 | 5.0 | 16.0 | 0.00 | 1.78 | 1.78 | 88 | 1014.9 |
| 20260502002011 | 57 | 55 | 5.0 | 16.0 | 0.00 | 1.78 | 1.78 | 88 | 1014.8 |
| 20260502000959 | 58 | 22 | 6.0 | 18.0 | 0.00 | 1.78 | 1.78 | 88 | 1014.5 |
| 20260502000724 | 58 | 111 | 5.0 | 16.0 | 0.00 | 1.78 | 1.78 | 88 | 1014.5 |
| 20260501235947 | 58 | 55 | 6.0 | 16.0 | 0.00 | 1.78 | 1.78 | 88 | 1014.5 |
| 20260501235441 | 58 | 53 | 5.0 | 17.0 | 0.00 | 1.78 | 1.78 | 88 | 1014.3 |
| 20260501234935 | 58 | 5 | 5.0 | 19.0 | 0.00 | 1.78 | 1.78 | 88 | 1014.2 |
| 20260501234428 | 58 | 65 | 7.0 | 19.0 | 0.00 | 1.78 | 1.78 | 88 | 1014.0 |
| 20260501233417 | 58 | 0 | 6.0 | 18.0 | 0.00 | 1.78 | 1.78 | 89 | 1013.9 |
| 20260501232911 | 58 | 41 | 6.0 | 18.0 | 0.00 | 1.78 | 1.78 | 89 | 1013.8 |
| 20260501232404 | 58 | 11 | 6.0 | 17.0 | 0.00 | 1.78 | 1.78 | 89 | 1013.7 |
| 20260501231859 | 58 | 34 | 6.0 | 17.0 | 0.00 | 1.78 | 1.78 | 89 | 1013.6 |
| 20260501231353 | 59 | 57 | 6.0 | 20.0 | 0.00 | 1.78 | 1.78 | 90 | 1013.4 |
| 20260501230847 | 59 | 61 | 6.0 | 20.0 | 0.00 | 1.78 | 1.78 | 89 | 1013.5 |
| 20260501230611 | 59 | 59 | 4.0 | 11.0 | 0.00 | 1.78 | 1.78 | 91 | 1013.4 |
| 20260501225835 | 59 | 72 | 5.0 | 12.0 | 0.00 | 1.78 | 1.78 | 91 | 1013.1 |
| 20260501225329 | 58 | 69 | 5.0 | 13.0 | 0.00 | 1.78 | 1.78 | 91 | 1013.0 |
| 20260501224823 | 58 | 42 | 5.0 | 13.0 | 0.00 | 1.78 | 1.78 | 92 | 1013.1 |
| 20260501224323 | 58 | 61 | 5.0 | 14.0 | 0.00 | 1.78 | 1.78 | 92 | 1013.0 |
| 20260501223823 | 58 | 58 | 4.0 | 18.0 | 0.00 | 1.78 | 1.78 | 92 | 1013.0 |
| 20260501223325 | 58 | 76 | 3.0 | 18.0 | 0.00 | 1.78 | 1.78 | 92 | 1013.1 |
| 20260501222823 | 58 | 77 | 3.0 | 10.0 | 0.00 | 1.78 | 1.78 | 92 | 1013.2 |
| 20260501222323 | 58 | 53 | 3.0 | 12.0 | 0.00 | 1.78 | 1.78 | 92 | 1013.2 |
| 20260501221823 | 58 | 91 | 2.0 | 12.0 | 0.01 | 1.78 | 1.78 | 92 | 1013.1 |
| 20260501221553 | 59 | 56 | 3.0 | 8.0 | 0.01 | 1.78 | 1.78 | 92 | 1013.4 |
| 20260501220823 | 58 | 355 | 3.0 | 14.0 | 0.01 | 1.78 | 1.78 | 92 | 1013.4 |
| 20260501220323 | 58 | 38 | 2.0 | 14.0 | 0.02 | 1.78 | 1.78 | 92 | 1013.5 |
| 20260501215823 | 59 | 292 | 2.0 | 10.0 | 0.04 | 1.78 | 1.78 | 92 | 1013.5 |
| 20260501215323 | 59 | 74 | 3.0 | 10.0 | 0.06 | 1.78 | 1.78 | 92 | 1013.6 |
| 20260501215054 | 59 | 52 | 3.0 | 10.0 | 0.06 | 1.78 | 1.78 | 93 | 1013.3 |
| 20260501214323 | 60 | 67 | 2.0 | 9.0 | 0.06 | 1.78 | 1.78 | 93 | 1013.0 |
| 20260501213822 | 59 | 60 | 2.0 | 9.0 | 0.06 | 1.78 | 1.78 | 93 | 1013.1 |
| 20260501213325 | 59 | 53 | 2.0 | 10.0 | 0.06 | 1.78 | 1.78 | 93 | 1013.1 |
| 20260501212826 | 59 | 86 | 2.0 | 14.0 | 0.06 | 1.78 | 1.78 | 93 | 1013.1 |
| 20260501212317 | 59 | 15 | 3.0 | 14.0 | 0.06 | 1.78 | 1.78 | 93 | 1013.1 |
| 20260501211817 | 59 | 355 | 4.0 | 12.0 | 0.05 | 1.77 | 1.77 | 93 | 1013.0 |
| 20260501210817 | 59 | 34 | 4.0 | 15.0 | 0.05 | 1.77 | 1.77 | 92 | 1012.7 |
| 20260501210315 | 59 | 27 | 3.0 | 15.0 | 0.05 | 1.76 | 1.76 | 92 | 1012.6 |
| 20260501205814 | 60 | 50 | 3.0 | 13.0 | 0.03 | 1.74 | 1.75 | 92 | 1012.7 |
| 20260501205314 | 60 | 44 | 3.0 | 11.0 | 0.02 | 1.72 | 1.72 | 92 | 1012.9 |